Des Moines, Washington, United States
Lat: 47.40N, Lon: 122.32W
Wx Zone: WAZ508
Local Info
Past Weather Observations for Today

NOTE: This archive is for the closest National Weather Service station to Des Moines. Information may differ from the station used for current weather conditions.

Click here for Long-term Archive

Time Weather Temperature Dewpoint Humidity Pressure Winds Precip Visibility
22:53
Overcast
54°F / 12°C 46°F / 8°C 77% 29.98 in
(1015 mb)
SW 13.8 mph
(SW 22 kph)
- 10SM
21:53
Mostly Cloudy
54°F / 12°C 43°F / 6°C 67% 29.98 in
(1015 mb)
SSW 9.2 mph
(SSW 15 kph)
- 10SM
20:53
Partly Cloudy
55°F / 13°C 41°F / 5°C 59% 29.98 in
(1015 mb)
SW 6.9 mph
(SW 11 kph)
- 10SM
20:00
Partly Cloudy
57°F / 14°C 43°F / 6°C 59% 29.98 in
(1015 mb)
SW 6.9 mph
(SW 11 kph)
- 10SM
19:53
Clear
57°F / 14°C 43°F / 6°C 59% 29.98 in
(1015 mb)
SW 6.9 mph
(SW 11 kph)
- 10SM
18:53
Partly Cloudy
59°F / 15°C 43°F / 6°C 55% 29.98 in
(1015 mb)
S 3.5 mph
(S 6 kph)
- 10SM
17:53
Partly Cloudy
59°F / 15°C 41°F / 5°C 51% 29.98 in
(1015 mb)
S 3.5 mph
(S 6 kph)
- 10SM
16:53
Partly Cloudy
63°F / 17°C 37°F / 3°C 39% 29.98 in
(1015 mb)
SSE 5.8 mph
(SSE 9 kph)
- 10SM
15:53
Partly Cloudy
63°F / 17°C 43°F / 6°C 49% 29.98 in
(1015 mb)
S 8.1 mph
(S 13 kph)
- 10SM
14:53
Partly Cloudy
64°F / 18°C 43°F / 6°C 46% 29.98 in
(1015 mb)
SSW 8.1 mph
(SSW 13 kph)
- 10SM
13:53
Partly Cloudy
63°F / 17°C 46°F / 8°C 56% 29.98 in
(1015 mb)
W 5.8 mph
(W 9 kph)
- 10SM
12:53
Partly Cloudy
61°F / 16°C 46°F / 8°C 59% 30.01 in
(1016 mb)
SSW 5.8 mph
(SSW 9 kph)
- 10SM
11:53
Partly Cloudy
57°F / 14°C 46°F / 8°C 67% 30.01 in
(1016 mb)
SSW 5.8 mph
(SSW 9 kph)
- 10SM
10:53
Partly Cloudy
Hazy
55°F / 13°C 46°F / 8°C 72% 30.04 in
(1017 mb)
W 4.6 mph
(W 7 kph)
- 5SM
10:23
Partly Cloudy
Hazy
54°F / 12°C 46°F / 8°C 77% 30.04 in
(1017 mb)
Variable 5.8 mph
(Variable 9 kph)
- 4SM
09:53
Overcast
Hazy
52°F / 11°C 46°F / 8°C 82% 30.04 in
(1017 mb)
Calm - 2 1/2SM
09:47
Overcast
Fog And Mist
50°F / 10°C 46°F / 8°C 88% 30.04 in
(1017 mb)
SSE 4.6 mph
(SSE 7 kph)
- 1 1/2SM
09:28
Overcast
Fog And Mist
50°F / 10°C 46°F / 8°C 88% 30.06 in
(1018 mb)
Calm - 1 1/2SM
08:53
Overcast
Fog And Mist
48°F / 9°C 46°F / 8°C 94% 30.06 in
(1018 mb)
Calm - 1/8SM
07:53
Overcast
Fog And Mist
48°F / 9°C 46°F / 8°C 94% 30.06 in
(1018 mb)
SE 4.6 mph
(SE 7 kph)
- 1/8SM
07:49
Overcast
Fog And Mist
48°F / 9°C 46°F / 8°C 94% 30.06 in
(1018 mb)
E 3.5 mph
(E 6 kph)
- 1/8SM
06:53
Overcast
Fog And Mist
48°F / 9°C 46°F / 8°C 94% 30.06 in
(1018 mb)
SSE 3.5 mph
(SSE 6 kph)
- 1SM
05:53
Mostly Cloudy
Fog And Mist
48°F / 9°C 46°F / 8°C 94% 30.06 in
(1018 mb)
SSE 5.8 mph
(SSE 9 kph)
- 1 1/4SM
04:53
Partly Cloudy
46°F / 8°C 43°F / 6°C 87% 30.06 in
(1018 mb)
SSE 4.6 mph
(SSE 7 kph)
- 10SM
03:53
Partly Cloudy
48°F / 9°C 45°F / 7°C 87% 30.06 in
(1018 mb)
SE 6.9 mph
(SE 11 kph)
- 10SM
02:53
Partly Cloudy
48°F / 9°C 45°F / 7°C 87% 30.06 in
(1018 mb)
SE 6.9 mph
(SE 11 kph)
- 10SM
01:53
Partly Cloudy
50°F / 10°C 43°F / 6°C 76% 30.06 in
(1018 mb)
Calm - 10SM
00:53
Mostly Cloudy
54°F / 12°C 43°F / 6°C 67% 30.06 in
(1018 mb)
E 4.6 mph
(E 7 kph)
- 10SM
Time Weather Temperature Dewpoint Humidity Pressure Winds Precip Visibility


Weather for websites

WeatherForYou.com, LLC is not responsible for any damages or problems caused by this service. Current weather conditions are obtained from the closest station including government and personal stations which may have varying degrees of accuracy. Weather forecasts are derived from the NOAA NDFD. Like all things, this site belongs to Jesus Christ... He just trusts us to maintain it. If you have any questions or comments email webmaster@weatherforyou.com

Copyright © 2016, WeatherForYou.com LLC. All rights reserved.